PulseSat

PulseSat

GSAT0207 (GALILEO 15)

Last updated on April 21, 2019, 3:01 a.m. UTC

1 41859U 16069A   19109.16841579  .00000025  00000-0  00000-0 0  9997
2 41859  54.5967 173.6595 0005451 286.4302  73.5951  1.70473799 14968
UTC
Height (km)
Latitude
Longitude
Inclination
Orbital Period

Next 30 passes for location: Hong Kong

Rise time Rise Azimuth (degrees) Set time Set Azimuth (degrees) Duration Max altitude (degrees)

No matching passes for this satellites

PulseSat

PulseSat is the new satellites software and hardware trackering solution by Pulsely.
Satellite Two Line Element Set source: US Air Force Space Command

Download PulseSat for iOS
© 2017 Pulsely Limited